Location: B
(0.0000°N, 0.0000°E)
Time: 03:31:06
(UTC+02:00)

Daily predictions for brighter satellites

Satellite Brightness Start Highest point End
(mag) Time Altitude Azimuth Time Altitude Azimuth Time Altitude Azimuth
Maqsat-B 4.2 05:34:34 59° SE 05:34:34 59° SE 05:48:23 10° E
ADEOS Rocket 3.5 05:45:23 10° NNE 05:53:08 82° ESE 05:55:49 45° S
CZ-3 Stage 3 3.8 05:40:29 10° NW 05:54:42 38° NNE 05:58:35 10° E
Feng Yun 1-1 Rocket 4.5 05:52:28 10° NNE 05:56:58 62° NE 05:56:58 62° NE
Ariane 42P Rocket 3.8 06:06:45 34° ESE 06:06:45 34° ESE 06:10:54 10° E
Cosmos 407 Rocket 3.5 06:06:55 72° NE 06:06:55 72° NE 06:11:36 10° NNE
OAO 2 Rocket 3.6 06:07:32 65° SE 06:07:32 65° SE 06:12:01 10° SE
ARIANE 5 R/B 3.5 06:06:50 45° W 06:10:32 82° S 06:14:35 10° E
GPS 2-15 Rocket1 3.3 06:13:36 74° ESE 06:13:36 74° ESE 06:18:05 10° ESE
CZ-3A R/B 4.2 04:33:24 10° WSW 06:13:12 90° NW 06:19:43 10° ENE
Okean 1-7 3.7 06:15:03 47° NNE 06:15:03 47° NNE 06:18:07 10° N
MOS 1 Rocket 4.4 06:10:13 10° NNE 06:14:13 38° ESE 06:18:20 10° S
H-10 deb 2.4 06:14:31 74° WNW 06:14:57 84° N 06:18:00 10° E
Meteor 1-31 Rocket 3.6 06:12:04 10° NNE 06:15:12 49° ENE 06:15:12 49° ENE
ARIANE 5 R/B 4.0 06:22:28 33° WNW 06:26:22 57° N 06:30:21 10° ENE
Cosmos 1302 Rocket 4.2 06:21:55 10° N 06:27:04 69° ENE 06:32:14 10° SSE
Thor Agena Rocket 3.4 06:29:34 10° SSE 06:34:38 89° WSW 06:39:43 10° NNW
ATLAS CENTAUR R/B 3.7 06:32:21 10° NNE 06:35:11 21° ENE 06:37:55 10° ESE
RUBIN 8/PSLV 4.5 06:31:03 10° N 06:35:24 89° WNW 06:38:17 21° SSW
Cosmos 1140 Rocket 4.2 06:33:02 10° S 06:38:01 51° ESE 06:42:59 10° NNE
ADEOS II 2.8 06:34:58 10° NNW 06:39:05 33° WNW 06:39:05 33° WNW
COSMOS 2487 4.3 06:43:47 20° NNW 06:43:47 20° NNW 06:45:10 10° NNW
Cosmos 1825 2.2 06:38:47 10° N 06:42:33 78° E 06:46:21 10° S
SeaSat 1 2.6 06:40:21 10° S 06:45:06 49° WSW 06:49:50 10° NW
SEDSat Delta rocket 2.8 06:47:35 42° WSW 06:48:56 79° NNW 06:53:25 10° NE
CZ-3 R/B 4.2 06:31:03 10° NW 06:49:16 28° N 06:55:23 10° ENE
NOAA 6 4.0 06:44:53 10° N 06:49:58 63° WNW 06:55:07 10° SSW
DELTA-4 R/B 3.5 06:49:55 24° NW 06:51:00 29° NNW 06:53:49 10° NE
CSL-04 Rocket 4.1 06:47:23 10° NNE 06:52:38 61° ESE 06:57:50 10° S
Cosmos 1408 2.5 06:51:42 10° NNW 06:55:24 62° W 06:59:08 10° S
Sea Lan Dem Rocket 4.3 06:34:56 22° W 06:55:47 88° S 07:01:24 10° E
Ariane H10 3.3 06:57:05 11° NNE 06:57:05 11° NNE 06:57:14 10° NNE
Ariane Rocket 2.9 06:55:08 10° N 07:00:11 71° WNW 07:05:16 10° SSW
Gbstr 26 Del rocket 4.1 06:56:54 13° SW 07:02:37 89° NW 07:10:11 10° NE
Cosmos 1908 Rocket 3.9 07:00:23 10° NNW 07:04:26 39° W 07:08:29 10° SSW
Cosmos 2181 Rocket 4.1 06:58:26 10° SSW 07:04:41 55° W 07:10:57 10° N
Sich 1 Rocket 4.4 07:03:04 10° NW 07:06:49 28° W 07:10:37 10° SSW
Cosmos 614 Rocket 4.3 07:01:46 10° S 07:06:56 68° ESE 07:12:01 10° NNE
Ariane H10 2.0 07:07:22 23° WSW 07:08:50 49° S 07:11:09 10° E
BLOCK DM-SL R/B 3.4 06:47:43 18° W 07:09:13 88° N 07:13:47 10° E
Fermi 3.9 07:09:07 18° WNW 07:11:57 57° SSW 07:16:01 10° SE
Cosmos 839 Rocket 4.3 07:07:02 10° NW 07:12:58 43° WSW 07:18:46 10° S
Cosmos 2082 Rocket 2.3 07:07:56 10° SSW 07:13:39 81° ESE 07:19:21 10° NNE
Cosmos 2369 Rocket 2.9 07:11:18 10° NW 07:16:06 29° WSW 07:20:56 10° SSW
Meteor 2-6 Rocket 4.4 07:11:04 10° S 07:17:00 90° E 07:22:57 10° N
ARIANE 5 R/B 2.8 07:18:37 10° NW 07:20:19 23° N 07:23:00 10° ENE
Timation 2 Rocket 4.1 07:14:32 10° SSW 07:21:00 56° WNW 07:27:11 10° N
USA 229 DEB 3.7 07:16:18 10° SSW 07:23:12 78° WNW 07:30:06 10° NNE
USA 229 3.7 07:16:23 10° SSW 07:23:18 79° WNW 07:30:12 10° NNE
Cosmos 1992 Rocket 4.3 07:21:23 10° N 07:26:35 74° ENE 07:31:48 10° SSE
Cosmos 1606 2.7 07:24:27 10° S 07:28:22 84° W 07:32:17 10° N
SPOT 3 Rocket 4.5 07:23:49 10° NNE 07:28:51 53° ESE 07:33:55 10° S
CSL-04 Debris 4.2 07:23:36 10° N 07:29:00 63° WNW 07:34:25 10° SSW
Cosmos 1850 Rocket 4.1 07:24:09 10° SSW 07:29:14 56° WNW 07:34:21 10° N
SWIFT 2.5 07:30:45 10° WSW 07:34:58 63° NNW 07:39:10 10° ENE
IRS-1A Rocket 4.4 07:30:24 10° N 07:36:13 64° WNW 07:41:59 10° SSW
Cosmos 1833 Rocket 2.7 07:30:50 10° SSW 07:36:27 76° WNW 07:42:01 10° N
Okean 3 4.2 07:33:59 10° S 07:38:14 59° E 07:42:27 10° NNE
Milstar 3 Cent rocket 4.3 07:35:31 10° SW 07:39:40 17° S 07:45:31 10° SSE
NATO 3D Rocket 4.5 07:35:23 10° WNW 07:41:37 67° SSW 07:50:48 10° ESE
Meteor 2-13 Rocket 4.4 07:37:16 10° N 07:43:15 70° W 07:49:18 10° S
